timestamp, 		tick, 	maxbdip, 	maxindex, 	minbdip, 	minindex, 	change,	steepness, 	maxaftdip, 	maxaftidx, 	minaftdip, 	minaftindex, 	rise, 	alert
13042021_19:42:46,	2.962,	2.962,		710,		2.840,		-2373,		-0.00,	0.00,		1000000.00,	-1,		1000000.00,		-1,		0.00,
13042021_19:42:57,	2.962,	2.962,		709,		2.840,		-2374,		-0.00,	0.00,		1000000.00,	-1,		1000000.00,		-1,		0.00,
13042021_19:43:07,	2.962,	2.962,		708,		2.840,		-2375,		-0.00,	0.00,		1000000.00,	-1,		1000000.00,		-1,		0.00,
13042021_19:43:17,	2.962,	2.962,		707,		2.840,		-2376,		-0.00,	0.00,		1000000.00,	-1,		1000000.00,		-1,		0.00,
13042021_19:43:28,	2.962,	2.962,		706,		2.840,		-2377,		-0.00,	0.00,		1000000.00,	-1,		1000000.00,		-1,		0.00,
13042021_19:43:38,	2.962,	2.962,		705,		2.840,		-2378,		-0.00,	0.00,		1000000.00,	-1,		1000000.00,		-1,		0.00,
13042021_19:43:50,	2.958,	2.962,		704,		2.840,		-2379,		-0.15,	0.07,		1000000.00,	-1,		1000000.00,		-1,		0.00,
13042021_19:44:01,	2.958,	2.962,		703,		2.840,		-2380,		-0.15,	0.15,		1000000.00,	-1,		1000000.00,		-1,		0.00,
13042021_19:44:11,	2.958,	2.962,		702,		2.840,		-2381,		-0.15,	0.15,		1000000.00,	-1,		1000000.00,		-1,		0.00,
13042021_19:44:22,	2.958,	2.962,		701,		2.840,		-2382,		-0.15,	0.07,		1000000.00,	-1,		1000000.00,		-1,		0.00,
13042021_19:44:32,	2.958,	2.962,		700,		2.840,		-2383,		-0.15,	0.00,		1000000.00,	-1,		1000000.00,		-1,		0.00,
13042021_19:44:43,	2.957,	2.962,		699,		2.840,		-2384,		-0.18,	0.02,		1000000.00,	-1,		1000000.00,		-1,		0.00,
13042021_19:44:53,	2.957,	2.962,		698,		2.840,		-2385,		-0.17,	0.03,		1000000.00,	-1,		1000000.00,		-1,		0.00,
13042021_19:45:03,	2.957,	2.962,		697,		2.840,		-2386,		-0.17,	0.02,		1000000.00,	-1,		1000000.00,		-1,		0.00,
13042021_19:45:14,	2.957,	2.962,		696,		2.840,		-2387,		-0.17,	0.01,		1000000.00,	-1,		1000000.00,		-1,		0.00,
13042021_19:45:24,	2.957,	2.962,		695,		2.840,		-2388,		-0.16,	-0.01,		1000000.00,	-1,		1000000.00,		-1,		0.00,
13042021_19:45:35,	2.957,	2.962,		694,		2.840,		-2389,		-0.16,	-0.01,		1000000.00,	-1,		1000000.00,		-1,		0.00,
13042021_19:45:46,	2.957,	2.962,		693,		2.840,		-2390,		-0.16,	-0.01,		1000000.00,	-1,		1000000.00,		-1,		0.00,
13042021_19:45:57,	2.957,	2.962,		692,		2.840,		-2391,		-0.16,	-0.01,		1000000.00,	-1,		1000000.00,		-1,		0.00,
13042021_19:46:07,	2.957,	2.962,		691,		2.840,		-2392,		-0.16,	0.00,		1000000.00,	-1,		1000000.00,		-1,		0.00,
13042021_19:46:18,	2.957,	2.962,		690,		2.840,		-2393,		-0.16,	0.00,		1000000.00,	-1,		1000000.00,		-1,		0.00,
13042021_19:46:28,	2.957,	2.962,		689,		2.840,		-2394,		-0.16,	0.00,		1000000.00,	-1,		1000000.00,		-1,		0.00,
13042021_19:46:38,	2.957,	2.962,		688,		2.840,		-2395,		-0.16,	0.00,		1000000.00,	-1,		1000000.00,		-1,		0.00,
13042021_19:46:49,	2.957,	2.962,		687,		2.840,		-2396,		-0.16,	0.00,		1000000.00,	-1,		1000000.00,		-1,		0.00,
13042021_19:46:59,	2.957,	2.962,		686,		2.840,		-2397,		-0.16,	0.00,		1000000.00,	-1,		1000000.00,		-1,		0.00,
13042021_19:47:10,	2.957,	2.962,		685,		2.840,		-2398,		-0.16,	0.00,		1000000.00,	-1,		1000000.00,		-1,		0.00,
13042021_19:47:20,	2.957,	2.962,		684,		2.840,		-2399,		-0.16,	0.00,		1000000.00,	-1,		1000000.00,		-1,		0.00,
13042021_19:47:30,	2.957,	2.962,		683,		2.840,		-2400,		-0.16,	0.00,		1000000.00,	-1,		1000000.00,		-1,		0.00,
13042021_19:47:41,	2.957,	2.962,		682,		2.840,		-2401,		-0.16,	0.00,		1000000.00,	-1,		1000000.00,		-1,		0.00,
13042021_19:47:53,	2.957,	2.962,		681,		2.840,		-2402,		-0.16,	0.00,		1000000.00,	-1,		1000000.00,		-1,		0.00,
13042021_19:48:04,	2.957,	2.962,		680,		2.840,		-2403,		-0.16,	0.00,		1000000.00,	-1,		1000000.00,		-1,		0.00,
13042021_19:48:14,	2.957,	2.962,		679,		2.840,		-2404,		-0.16,	0.00,		1000000.00,	-1,		1000000.00,		-1,		0.00,
13042021_19:48:24,	2.957,	2.962,		678,		2.840,		-2405,		-0.16,	0.00,		1000000.00,	-1,		1000000.00,		-1,		0.00,
13042021_19:48:35,	2.957,	2.962,		677,		2.840,		-2406,		-0.16,	0.00,		1000000.00,	-1,		1000000.00,		-1,		0.00,
13042021_19:48:45,	2.957,	2.962,		676,		2.840,		-2407,		-0.16,	0.00,		1000000.00,	-1,		1000000.00,		-1,		0.00,
13042021_19:48:56,	2.957,	2.962,		675,		2.840,		-2408,		-0.16,	0.00,		1000000.00,	-1,		1000000.00,		-1,		0.00,
13042021_19:49:06,	2.957,	2.962,		674,		2.840,		-2409,		-0.16,	0.00,		1000000.00,	-1,		1000000.00,		-1,		0.00,
13042021_19:49:16,	2.957,	2.962,		673,		2.840,		-2410,		-0.16,	0.00,		1000000.00,	-1,		1000000.00,		-1,		0.00,
13042021_19:49:27,	2.957,	2.962,		672,		2.840,		-2411,		-0.16,	0.00,		1000000.00,	-1,		1000000.00,		-1,		0.00,
13042021_19:49:37,	2.957,	2.962,		671,		2.840,		-2412,		-0.16,	0.00,		1000000.00,	-1,		1000000.00,		-1,		0.00,
13042021_19:49:49,	2.957,	2.962,		670,		2.840,		-2413,		-0.16,	0.00,		1000000.00,	-1,		1000000.00,		-1,		0.00,
13042021_19:50:00,	2.957,	2.962,		669,		2.840,		-2414,		-0.16,	0.00,		1000000.00,	-1,		1000000.00,		-1,		0.00,
13042021_19:50:10,	2.957,	2.962,		668,		2.840,		-2415,		-0.16,	0.00,		1000000.00,	-1,		1000000.00,		-1,		0.00,
13042021_19:50:20,	2.957,	2.962,		667,		2.840,		-2416,		-0.16,	0.00,		1000000.00,	-1,		1000000.00,		-1,		0.00,
13042021_19:50:31,	2.957,	2.962,		666,		2.840,		-2417,		-0.16,	0.00,		1000000.00,	-1,		1000000.00,		-1,		0.00,
13042021_19:50:41,	2.957,	2.962,		665,		2.840,		-2418,		-0.16,	0.00,		1000000.00,	-1,		1000000.00,		-1,		0.00,
13042021_19:50:52,	2.957,	2.962,		664,		2.840,		-2419,		-0.16,	0.00,		1000000.00,	-1,		1000000.00,		-1,		0.00,
13042021_19:51:02,	2.957,	2.962,		663,		2.840,		-2420,		-0.16,	0.00,		1000000.00,	-1,		1000000.00,		-1,		0.00,
13042021_19:51:12,	2.957,	2.962,		662,		2.840,		-2421,		-0.16,	0.00,		1000000.00,	-1,		1000000.00,		-1,		0.00,
13042021_19:51:23,	2.957,	2.962,		661,		2.840,		-2422,		-0.16,	0.00,		1000000.00,	-1,		1000000.00,		-1,		0.00,
13042021_19:51:34,	2.957,	2.962,		660,		2.840,		-2423,		-0.16,	0.00,		1000000.00,	-1,		1000000.00,		-1,		0.00,
13042021_19:51:45,	2.957,	2.962,		659,		2.840,		-2424,		-0.16,	0.00,		1000000.00,	-1,		1000000.00,		-1,		0.00,
13042021_19:51:55,	2.957,	2.962,		658,		2.840,		-2425,		-0.16,	0.00,		1000000.00,	-1,		1000000.00,		-1,		0.00,
13042021_19:52:06,	2.957,	2.962,		657,		2.840,		-2426,		-0.16,	0.00,		1000000.00,	-1,		1000000.00,		-1,		0.00,
13042021_19:52:16,	2.957,	2.962,		656,		2.840,		-2427,		-0.16,	0.00,		1000000.00,	-1,		1000000.00,		-1,		0.00,
13042021_19:52:26,	2.957,	2.962,		655,		2.840,		-2428,		-0.16,	0.00,		1000000.00,	-1,		1000000.00,		-1,		0.00,
13042021_19:52:37,	2.957,	2.962,		654,		2.840,		-2429,		-0.16,	0.00,		1000000.00,	-1,		1000000.00,		-1,		0.00,
13042021_19:52:47,	2.957,	2.962,		653,		2.840,		-2430,		-0.16,	0.00,		1000000.00,	-1,		1000000.00,		-1,		0.00,
13042021_19:52:58,	2.957,	2.962,		652,		2.840,		-2431,		-0.16,	0.00,		1000000.00,	-1,		1000000.00,		-1,		0.00,
13042021_19:53:08,	2.957,	2.962,		651,		2.840,		-2432,		-0.16,	0.00,		1000000.00,	-1,		1000000.00,		-1,		0.00,
13042021_19:53:19,	2.955,	2.962,		650,		2.840,		-2433,		-0.23,	0.04,		1000000.00,	-1,		1000000.00,		-1,		0.00,
13042021_19:53:30,	2.955,	2.962,		649,		2.840,		-2434,		-0.23,	0.07,		1000000.00,	-1,		1000000.00,		-1,		0.00,
13042021_19:53:41,	2.955,	2.962,		648,		2.840,		-2435,		-0.23,	0.07,		1000000.00,	-1,		1000000.00,		-1,		0.00,
13042021_19:53:52,	2.955,	2.962,		647,		2.840,		-2436,		-0.23,	0.04,		1000000.00,	-1,		1000000.00,		-1,		0.00,
13042021_19:54:02,	2.955,	2.962,		646,		2.840,		-2437,		-0.23,	0.00,		1000000.00,	-1,		1000000.00,		-1,		0.00,
13042021_19:54:13,	2.955,	2.962,		645,		2.840,		-2438,		-0.23,	0.00,		1000000.00,	-1,		1000000.00,		-1,		0.00,
13042021_19:54:23,	2.955,	2.962,		644,		2.840,		-2439,		-0.23,	0.00,		1000000.00,	-1,		1000000.00,		-1,		0.00,
13042021_19:54:34,	2.955,	2.962,		643,		2.840,		-2440,		-0.23,	0.00,		1000000.00,	-1,		1000000.00,		-1,		0.00,
13042021_19:54:44,	2.955,	2.962,		642,		2.840,		-2441,		-0.23,	0.00,		1000000.00,	-1,		1000000.00,		-1,		0.00,
13042021_19:54:55,	2.955,	2.962,		641,		2.840,		-2442,		-0.23,	0.00,		1000000.00,	-1,		1000000.00,		-1,		0.00,
13042021_19:55:05,	2.955,	2.962,		640,		2.840,		-2443,		-0.23,	0.00,		1000000.00,	-1,		1000000.00,		-1,		0.00,
13042021_19:55:15,	2.955,	2.962,		639,		2.840,		-2444,		-0.23,	0.00,		1000000.00,	-1,		1000000.00,		-1,		0.00,
13042021_19:55:26,	2.955,	2.962,		638,		2.840,		-2445,		-0.23,	0.00,		1000000.00,	-1,		1000000.00,		-1,		0.00,
13042021_19:55:37,	2.955,	2.962,		637,		2.840,		-2446,		-0.23,	0.00,		1000000.00,	-1,		1000000.00,		-1,		0.00,
13042021_19:55:49,	2.955,	2.962,		636,		2.840,		-2447,		-0.23,	0.00,		1000000.00,	-1,		1000000.00,		-1,		0.00,
13042021_19:55:59,	2.955,	2.962,		635,		2.840,		-2448,		-0.23,	0.00,		1000000.00,	-1,		1000000.00,		-1,		0.00,
13042021_19:56:10,	2.955,	2.962,		634,		2.840,		-2449,		-0.23,	0.00,		1000000.00,	-1,		1000000.00,		-1,		0.00,
13042021_19:56:20,	2.959,	2.962,		633,		2.840,		-2450,		-0.09,	-0.07,		1000000.00,	-1,		1000000.00,		-1,		0.00,
13042021_19:56:30,	2.959,	2.962,		632,		2.840,		-2451,		-0.09,	-0.14,		1000000.00,	-1,		1000000.00,		-1,		0.00,
13042021_19:56:41,	2.956,	2.962,		631,		2.840,		-2452,		-0.20,	-0.08,		1000000.00,	-1,		1000000.00,		-1,		0.00,
13042021_19:56:51,	2.956,	2.962,		630,		2.840,		-2453,		-0.20,	0.04,		1000000.00,	-1,		1000000.00,		-1,		0.00,
13042021_19:57:02,	2.956,	2.962,		629,		2.840,		-2454,		-0.20,	0.11,		1000000.00,	-1,		1000000.00,		-1,		0.00,
13042021_19:57:12,	2.956,	2.962,		628,		2.840,		-2455,		-0.20,	0.05,		1000000.00,	-1,		1000000.00,		-1,		0.00,
13042021_19:57:23,	2.956,	2.962,		627,		2.840,		-2456,		-0.20,	0.00,		1000000.00,	-1,		1000000.00,		-1,		0.00,
13042021_19:57:34,	2.956,	2.962,		626,		2.840,		-2457,		-0.20,	0.00,		1000000.00,	-1,		1000000.00,		-1,		0.00,
13042021_19:57:45,	2.956,	2.962,		625,		2.840,		-2458,		-0.20,	0.00,		1000000.00,	-1,		1000000.00,		-1,		0.00,
13042021_19:57:56,	2.956,	2.962,		624,		2.840,		-2459,		-0.20,	0.00,		1000000.00,	-1,		1000000.00,		-1,		0.00,
13042021_19:58:06,	2.959,	2.962,		623,		2.840,		-2460,		-0.10,	-0.05,		1000000.00,	-1,		1000000.00,		-1,		0.00,
13042021_19:58:17,	2.959,	2.962,		622,		2.840,		-2461,		-0.10,	-0.10,		1000000.00,	-1,		1000000.00,		-1,		0.00,
13042021_19:58:27,	2.953,	2.962,		621,		2.840,		-2462,		-0.30,	0.00,		1000000.00,	-1,		1000000.00,		-1,		0.00,
13042021_19:58:38,	2.953,	2.962,		620,		2.840,		-2463,		-0.30,	0.15,		1000000.00,	-1,		1000000.00,		-1,		0.00,
13042021_19:58:48,	2.953,	2.962,		619,		2.840,		-2464,		-0.30,	0.20,		1000000.00,	-1,		1000000.00,		-1,		0.00,
13042021_19:58:58,	2.953,	2.962,		618,		2.840,		-2465,		-0.30,	0.10,		1000000.00,	-1,		1000000.00,		-1,		0.00,
13042021_19:59:09,	2.953,	2.962,		617,		2.840,		-2466,		-0.30,	0.00,		1000000.00,	-1,		1000000.00,		-1,		0.00,
13042021_19:59:19,	2.953,	2.962,		616,		2.840,		-2467,		-0.30,	0.00,		1000000.00,	-1,		1000000.00,		-1,		0.00,
13042021_19:59:30,	2.953,	2.962,		615,		2.840,		-2468,		-0.30,	0.00,		1000000.00,	-1,		1000000.00,		-1,		0.00,
13042021_19:59:41,	2.953,	2.962,		614,		2.840,		-2469,		-0.30,	0.00,		1000000.00,	-1,		1000000.00,		-1,		0.00,
13042021_19:59:52,	2.953,	2.962,		613,		2.840,		-2470,		-0.30,	0.00,		1000000.00,	-1,		1000000.00,		-1,		0.00,
13042021_20:00:03,	2.953,	2.962,		612,		2.840,		-2471,		-0.30,	0.00,		1000000.00,	-1,		1000000.00,		-1,		0.00,
13042021_20:00:13,	2.953,	2.962,		611,		2.840,		-2472,		-0.30,	0.00,		1000000.00,	-1,		1000000.00,		-1,		0.00,
13042021_20:00:23,	2.953,	2.962,		610,		2.840,		-2473,		-0.30,	0.00,		1000000.00,	-1,		1000000.00,		-1,		0.00,
13042021_20:00:34,	2.953,	2.962,		609,		2.840,		-2474,		-0.30,	0.00,		1000000.00,	-1,		1000000.00,		-1,		0.00,
13042021_20:00:44,	2.953,	2.962,		608,		2.840,		-2475,		-0.30,	0.00,		1000000.00,	-1,		1000000.00,		-1,		0.00,
13042021_20:00:54,	2.953,	2.962,		607,		2.840,		-2476,		-0.30,	0.00,		1000000.00,	-1,		1000000.00,		-1,		0.00,
13042021_20:01:05,	2.953,	2.962,		606,		2.840,		-2477,		-0.30,	0.00,		1000000.00,	-1,		1000000.00,		-1,		0.00,
13042021_20:01:15,	2.949,	2.962,		605,		2.840,		-2478,		-0.43,	0.06,		1000000.00,	-1,		1000000.00,		-1,		0.00,
13042021_20:01:26,	2.949,	2.962,		604,		2.840,		-2479,		-0.43,	0.12,		1000000.00,	-1,		1000000.00,		-1,		0.00,
13042021_20:01:37,	2.949,	2.962,		603,		2.840,		-2480,		-0.43,	0.12,		1000000.00,	-1,		1000000.00,		-1,		0.00,
13042021_20:01:49,	2.949,	2.962,		602,		2.840,		-2481,		-0.43,	0.06,		1000000.00,	-1,		1000000.00,		-1,		0.00,
13042021_20:01:59,	2.949,	2.962,		601,		2.840,		-2482,		-0.43,	0.00,		1000000.00,	-1,		1000000.00,		-1,		0.00,
13042021_20:02:10,	2.949,	2.962,		600,		2.840,		-2483,		-0.43,	0.00,		1000000.00,	-1,		1000000.00,		-1,		0.00,
13042021_20:02:20,	2.949,	2.962,		599,		2.840,		-2484,		-0.43,	0.00,		1000000.00,	-1,		1000000.00,		-1,		0.00,
13042021_20:02:30,	2.949,	2.962,		598,		2.840,		-2485,		-0.43,	0.00,		1000000.00,	-1,		1000000.00,		-1,		0.00,
13042021_20:02:41,	2.949,	2.962,		597,		2.840,		-2486,		-0.43,	0.00,		1000000.00,	-1,		1000000.00,		-1,		0.00,
13042021_20:02:51,	2.949,	2.962,		596,		2.840,		-2487,		-0.43,	0.00,		1000000.00,	-1,		1000000.00,		-1,		0.00,
13042021_20:03:01,	2.949,	2.962,		595,		2.840,		-2488,		-0.43,	0.00,		1000000.00,	-1,		1000000.00,		-1,		0.00,
13042021_20:03:13,	2.949,	2.962,		594,		2.840,		-2489,		-0.43,	0.00,		1000000.00,	-1,		1000000.00,		-1,		0.00,
13042021_20:03:23,	2.949,	2.962,		593,		2.840,		-2490,		-0.43,	0.00,		1000000.00,	-1,		1000000.00,		-1,		0.00,
13042021_20:03:34,	2.950,	2.962,		592,		2.840,		-2491,		-0.41,	-0.01,		1000000.00,	-1,		1000000.00,		-1,		0.00,
13042021_20:03:45,	2.950,	2.962,		591,		2.840,		-2492,		-0.41,	-0.02,		1000000.00,	-1,		1000000.00,		-1,		0.00,
13042021_20:03:56,	2.950,	2.962,		590,		2.840,		-2493,		-0.41,	-0.02,		1000000.00,	-1,		1000000.00,		-1,		0.00,
13042021_20:04:07,	2.950,	2.962,		589,		2.840,		-2494,		-0.41,	-0.01,		1000000.00,	-1,		1000000.00,		-1,		0.00,
13042021_20:04:17,	2.950,	2.962,		588,		2.840,		-2495,		-0.41,	0.00,		1000000.00,	-1,		1000000.00,		-1,		0.00,
13042021_20:04:28,	2.962,	2.962,		587,		2.840,		-2496,		-0.01,	-0.20,		1000000.00,	-1,		1000000.00,		-1,		0.00,
13042021_20:04:38,	2.962,	2.962,		586,		2.840,		-2497,		-0.01,	-0.40,		1000000.00,	-1,		1000000.00,		-1,		0.00,
13042021_20:04:48,	2.962,	2.962,		585,		2.840,		-2498,		-0.01,	-0.40,		1000000.00,	-1,		1000000.00,		-1,		0.00,
13042021_20:04:59,	2.961,	2.962,		584,		2.840,		-2499,		-0.02,	-0.19,		1000000.00,	-1,		1000000.00,		-1,		0.00,
13042021_20:05:09,	2.961,	2.962,		583,		2.840,		-2500,		-0.02,	0.01,		1000000.00,	-1,		1000000.00,		-1,		0.00,
13042021_20:05:19,	2.956,	2.962,		582,		2.840,		-2501,		-0.20,	0.10,		1000000.00,	-1,		1000000.00,		-1,		0.00,
13042021_20:05:30,	2.957,	2.962,		581,		2.840,		-2502,		-0.17,	0.17,		1000000.00,	-1,		1000000.00,		-1,		0.00,
13042021_20:05:41,	2.957,	2.962,		580,		2.840,		-2503,		-0.17,	0.15,		1000000.00,	-1,		1000000.00,		-1,		0.00,
13042021_20:05:53,	2.957,	2.962,		579,		2.840,		-2504,		-0.17,	0.06,		1000000.00,	-1,		1000000.00,		-1,		0.00,
13042021_20:06:04,	2.957,	2.962,		578,		2.840,		-2505,		-0.17,	-0.01,		1000000.00,	-1,		1000000.00,		-1,		0.00,
13042021_20:06:15,	2.957,	2.962,		577,		2.840,		-2506,		-0.17,	0.00,		1000000.00,	-1,		1000000.00,		-1,		0.00,
13042021_20:06:25,	2.957,	2.962,		576,		2.840,		-2507,		-0.17,	0.00,		1000000.00,	-1,		1000000.00,		-1,		0.00,
13042021_20:06:35,	2.957,	2.962,		575,		2.840,		-2508,		-0.17,	0.00,		1000000.00,	-1,		1000000.00,		-1,		0.00,
13042021_20:06:46,	2.951,	2.962,		574,		2.840,		-2509,		-0.38,	0.11,		1000000.00,	-1,		1000000.00,		-1,		0.00,
13042021_20:06:56,	2.951,	2.962,		573,		2.840,		-2510,		-0.38,	0.21,		1000000.00,	-1,		1000000.00,		-1,		0.00,
13042021_20:07:06,	2.951,	2.962,		572,		2.840,		-2511,		-0.38,	0.21,		1000000.00,	-1,		1000000.00,		-1,		0.00,
13042021_20:07:17,	2.951,	2.962,		571,		2.840,		-2512,		-0.38,	0.11,		1000000.00,	-1,		1000000.00,		-1,		0.00,
13042021_20:07:27,	2.951,	2.962,		570,		2.840,		-2513,		-0.38,	0.00,		1000000.00,	-1,		1000000.00,		-1,		0.00,
13042021_20:07:38,	2.951,	2.962,		569,		2.840,		-2514,		-0.38,	0.00,		1000000.00,	-1,		1000000.00,		-1,		0.00,
13042021_20:07:49,	2.951,	2.962,		568,		2.840,		-2515,		-0.38,	0.00,		1000000.00,	-1,		1000000.00,		-1,		0.00,
13042021_20:08:01,	2.951,	2.962,		567,		2.840,		-2516,		-0.38,	0.00,		1000000.00,	-1,		1000000.00,		-1,		0.00,
13042021_20:08:11,	2.951,	2.962,		566,		2.840,		-2517,		-0.38,	0.00,		1000000.00,	-1,		1000000.00,		-1,		0.00,
13042021_20:08:22,	2.951,	2.962,		565,		2.840,		-2518,		-0.38,	0.00,		1000000.00,	-1,		1000000.00,		-1,		0.00,
13042021_20:08:32,	2.942,	2.962,		564,		2.840,		-2519,		-0.69,	0.15,		1000000.00,	-1,		1000000.00,		-1,		0.00,
13042021_20:08:42,	2.942,	2.962,		563,		2.840,		-2520,		-0.69,	0.31,		1000000.00,	-1,		1000000.00,		-1,		0.00,
13042021_20:08:53,	2.942,	2.962,		562,		2.840,		-2521,		-0.69,	0.31,		1000000.00,	-1,		1000000.00,		-1,		0.00,
13042021_20:09:03,	2.942,	2.962,		561,		2.840,		-2522,		-0.69,	0.15,		1000000.00,	-1,		1000000.00,		-1,		0.00,
13042021_20:09:14,	2.939,	2.962,		560,		2.840,		-2523,		-0.78,	0.05,		1000000.00,	-1,		1000000.00,		-1,		0.00,
13042021_20:09:24,	2.939,	2.962,		559,		2.840,		-2524,		-0.78,	0.10,		1000000.00,	-1,		1000000.00,		-1,		0.00,
13042021_20:09:34,	2.938,	2.962,		558,		2.840,		-2525,		-0.81,	0.11,		1000000.00,	-1,		1000000.00,		-1,		0.00,
13042021_20:09:45,	2.938,	2.962,		557,		2.840,		-2526,		-0.81,	0.08,		1000000.00,	-1,		1000000.00,		-1,		0.00,
13042021_20:09:57,	2.938,	2.962,		556,		2.840,		-2527,		-0.81,	0.03,		1000000.00,	-1,		1000000.00,		-1,		0.00,
13042021_20:10:08,	2.939,	2.962,		555,		2.840,		-2528,		-0.78,	-0.00,		1000000.00,	-1,		1000000.00,		-1,		0.00,
13042021_20:10:18,	2.931,	2.962,		554,		2.840,		-2529,		-1.04,	0.10,		1000000.00,	-1,		1000000.00,		-1,		0.00,
13042021_20:10:28,	2.931,	2.962,		553,		2.840,		-2530,		-1.04,	0.23,		1000000.00,	-1,		1000000.00,		-1,		0.00,
13042021_20:10:39,	2.939,	2.962,		552,		2.840,		-2531,		-0.78,	0.12,		1000000.00,	-1,		1000000.00,		-1,		0.00,
13042021_20:10:49,	2.939,	2.962,		551,		2.840,		-2532,		-0.78,	-0.13,		1000000.00,	-1,		1000000.00,		-1,		0.00,
13042021_20:10:59,	2.939,	2.962,		550,		2.840,		-2533,		-0.78,	-0.27,		1000000.00,	-1,		1000000.00,		-1,		0.00,
13042021_20:11:10,	2.939,	2.962,		549,		2.840,		-2534,		-0.78,	-0.13,		1000000.00,	-1,		1000000.00,		-1,		0.00,
13042021_20:11:20,	2.939,	2.962,		548,		2.840,		-2535,		-0.78,	0.00,		1000000.00,	-1,		1000000.00,		-1,		0.00,
13042021_20:11:31,	2.939,	2.962,		547,		2.840,		-2536,		-0.78,	0.00,		1000000.00,	-1,		1000000.00,		-1,		0.00,
13042021_20:11:41,	2.939,	2.962,		546,		2.840,		-2537,		-0.78,	0.00,		1000000.00,	-1,		1000000.00,		-1,		0.00,
13042021_20:11:53,	2.939,	2.962,		545,		2.840,		-2538,		-0.78,	0.00,		1000000.00,	-1,		1000000.00,		-1,		0.00,
13042021_20:12:04,	2.939,	2.962,		544,		2.840,		-2539,		-0.78,	0.00,		1000000.00,	-1,		1000000.00,		-1,		0.00,
13042021_20:12:14,	2.939,	2.962,		543,		2.840,		-2540,		-0.78,	0.00,		1000000.00,	-1,		1000000.00,		-1,		0.00,
13042021_20:12:25,	2.939,	2.962,		542,		2.840,		-2541,		-0.78,	0.00,		1000000.00,	-1,		1000000.00,		-1,		0.00,
13042021_20:12:35,	2.939,	2.962,		541,		2.840,		-2542,		-0.78,	0.00,		1000000.00,	-1,		1000000.00,		-1,		0.00,
13042021_20:12:46,	2.939,	2.962,		540,		2.840,		-2543,		-0.78,	0.00,		1000000.00,	-1,		1000000.00,		-1,		0.00,
13042021_20:12:56,	2.946,	2.962,		539,		2.840,		-2544,		-0.54,	-0.12,		1000000.00,	-1,		1000000.00,		-1,		0.00,
13042021_20:13:07,	2.946,	2.962,		538,		2.840,		-2545,		-0.54,	-0.24,		1000000.00,	-1,		1000000.00,		-1,		0.00,
13042021_20:13:17,	2.946,	2.962,		537,		2.840,		-2546,		-0.54,	-0.24,		1000000.00,	-1,		1000000.00,		-1,		0.00,
13042021_20:13:27,	2.946,	2.962,		536,		2.840,		-2547,		-0.54,	-0.12,		1000000.00,	-1,		1000000.00,		-1,		0.00,
13042021_20:13:38,	2.948,	2.962,		535,		2.840,		-2548,		-0.46,	-0.04,		1000000.00,	-1,		1000000.00,		-1,		0.00,
13042021_20:13:48,	2.948,	2.962,		534,		2.840,		-2549,		-0.46,	-0.08,		1000000.00,	-1,		1000000.00,		-1,		0.00,
13042021_20:14:00,	2.948,	2.962,		533,		2.840,		-2550,		-0.46,	-0.08,		1000000.00,	-1,		1000000.00,		-1,		0.00,
13042021_20:14:10,	2.948,	2.962,		532,		2.840,		-2551,		-0.46,	-0.04,		1000000.00,	-1,		1000000.00,		-1,		0.00,
13042021_20:14:21,	2.948,	2.962,		531,		2.840,		-2552,		-0.46,	0.00,		1000000.00,	-1,		1000000.00,		-1,		0.00,
13042021_20:14:31,	2.948,	2.962,		530,		2.840,		-2553,		-0.46,	0.00,		1000000.00,	-1,		1000000.00,		-1,		0.00,
13042021_20:14:41,	2.948,	2.962,		529,		2.840,		-2554,		-0.46,	0.00,		1000000.00,	-1,		1000000.00,		-1,		0.00,
13042021_20:14:52,	2.948,	2.962,		528,		2.840,		-2555,		-0.46,	0.00,		1000000.00,	-1,		1000000.00,		-1,		0.00,
13042021_20:15:02,	2.948,	2.962,		527,		2.840,		-2556,		-0.46,	0.00,		1000000.00,	-1,		1000000.00,		-1,		0.00,
13042021_20:15:13,	2.948,	2.962,		526,		2.840,		-2557,		-0.46,	0.00,		1000000.00,	-1,		1000000.00,		-1,		0.00,
13042021_20:15:23,	2.948,	2.962,		525,		2.840,		-2558,		-0.46,	0.00,		1000000.00,	-1,		1000000.00,		-1,		0.00,
13042021_20:15:33,	2.948,	2.962,		524,		2.840,		-2559,		-0.46,	0.00,		1000000.00,	-1,		1000000.00,		-1,		0.00,
13042021_20:15:44,	2.954,	2.962,		523,		2.840,		-2560,		-0.28,	-0.09,		1000000.00,	-1,		1000000.00,		-1,		0.00,
13042021_20:15:56,	2.949,	2.962,		522,		2.840,		-2561,		-0.45,	-0.09,		1000000.00,	-1,		1000000.00,		-1,		0.00,
13042021_20:16:08,	2.950,	2.962,		521,		2.840,		-2562,		-0.40,	-0.03,		1000000.00,	-1,		1000000.00,		-1,		0.00,
13042021_20:16:18,	2.945,	2.962,		520,		2.840,		-2563,		-0.57,	0.12,		1000000.00,	-1,		1000000.00,		-1,		0.00,
13042021_20:16:28,	2.945,	2.962,		519,		2.840,		-2564,		-0.57,	0.20,		1000000.00,	-1,		1000000.00,		-1,		0.00,
13042021_20:16:39,	2.945,	2.962,		518,		2.840,		-2565,		-0.57,	0.14,		1000000.00,	-1,		1000000.00,		-1,		0.00,
13042021_20:16:49,	2.945,	2.962,		517,		2.840,		-2566,		-0.57,	0.08,		1000000.00,	-1,		1000000.00,		-1,		0.00,
13042021_20:16:59,	2.945,	2.962,		516,		2.840,		-2567,		-0.57,	0.00,		1000000.00,	-1,		1000000.00,		-1,		0.00,
13042021_20:17:10,	2.945,	2.962,		515,		2.840,		-2568,		-0.57,	0.00,		1000000.00,	-1,		1000000.00,		-1,		0.00,
13042021_20:17:20,	2.945,	2.962,		514,		2.840,		-2569,		-0.57,	0.00,		1000000.00,	-1,		1000000.00,		-1,		0.00,
13042021_20:17:31,	2.945,	2.962,		513,		2.840,		-2570,		-0.57,	0.00,		1000000.00,	-1,		1000000.00,		-1,		0.00,
13042021_20:17:41,	2.945,	2.962,		512,		2.840,		-2571,		-0.57,	0.00,		1000000.00,	-1,		1000000.00,		-1,		0.00,
13042021_20:17:52,	2.945,	2.962,		511,		2.840,		-2572,		-0.57,	0.00,		1000000.00,	-1,		1000000.00,		-1,		0.00,
13042021_20:18:04,	2.945,	2.962,		510,		2.840,		-2573,		-0.57,	0.00,		1000000.00,	-1,		1000000.00,		-1,		0.00,
13042021_20:18:14,	2.945,	2.962,		509,		2.840,		-2574,		-0.57,	0.00,		1000000.00,	-1,		1000000.00,		-1,		0.00,
13042021_20:18:25,	2.945,	2.962,		508,		2.840,		-2575,		-0.57,	0.00,		1000000.00,	-1,		1000000.00,		-1,		0.00,
13042021_20:18:35,	2.945,	2.962,		507,		2.840,		-2576,		-0.57,	0.00,		1000000.00,	-1,		1000000.00,		-1,		0.00,
13042021_20:18:45,	2.945,	2.962,		506,		2.840,		-2577,		-0.57,	0.00,		1000000.00,	-1,		1000000.00,		-1,		0.00,
13042021_20:18:56,	2.945,	2.962,		505,		2.840,		-2578,		-0.57,	0.00,		1000000.00,	-1,		1000000.00,		-1,		0.00,
13042021_20:19:06,	2.945,	2.962,		504,		2.840,		-2579,		-0.57,	0.00,		1000000.00,	-1,		1000000.00,		-1,		0.00,
13042021_20:19:17,	2.945,	2.962,		503,		2.840,		-2580,		-0.57,	0.00,		1000000.00,	-1,		1000000.00,		-1,		0.00,
13042021_20:19:27,	2.945,	2.962,		502,		2.840,		-2581,		-0.57,	0.00,		1000000.00,	-1,		1000000.00,		-1,		0.00,
13042021_20:19:37,	2.952,	2.962,		501,		2.840,		-2582,		-0.34,	-0.12,		1000000.00,	-1,		1000000.00,		-1,		0.00,
13042021_20:19:48,	2.952,	2.962,		500,		2.840,		-2583,		-0.34,	-0.23,		1000000.00,	-1,		1000000.00,		-1,		0.00,
13042021_20:20:00,	2.952,	2.962,		499,		2.840,		-2584,		-0.34,	-0.23,		1000000.00,	-1,		1000000.00,		-1,		0.00,
13042021_20:20:10,	2.952,	2.962,		498,		2.840,		-2585,		-0.34,	-0.12,		1000000.00,	-1,		1000000.00,		-1,		0.00,
13042021_20:20:21,	2.952,	2.962,		497,		2.840,		-2586,		-0.34,	0.00,		1000000.00,	-1,		1000000.00,		-1,		0.00,